Date String (YYYY-MM-DD hh:mm:ss) UTC,Instrument flags,Ambient pressure (hPa),Sample flow (lpm),Bypass flow (lpm),Sample temperature (°C),Ambient temperature (°C),ASC tube jacket temperature (°C),LED temperature (°C),Box temperature (°C),Sample RH (%),Span deviation,Mass concentration (μg/m³),Mass concentration (μg/m³),Mass concentration (μg/m³)
DateTimeUTC,F1_M11,P_M11,Q1_M11,Q2_M11,T1_M11,T2_M11,T3_M11,T4_M11,T5_M11,U1_M11,ZSPAN_M11,X0_M11,X2_M11,X1_M11
2022-09-04 20:00:00,,0829.3,4.99,0.00,29.6,27.3,00.0,38.2,31.4,22.6,0000.0,0017.37,0007.84,0006.87
2022-09-04 20:01:00,,0829.2,5.00,0.00,29.6,26.6,00.0,38.2,31.4,22.7,0000.0,0016.89,0007.85,0006.86
2022-09-04 20:02:00,,0829.2,5.01,0.00,29.5,26.9,00.0,38.2,31.4,23.1,0000.0,0016.46,0007.86,0006.85
2022-09-04 20:03:00,,0829.2,5.00,0.00,29.5,27.2,00.0,38.1,31.3,22.8,0000.0,0015.82,0007.82,0006.82
2022-09-04 20:04:00,,0829.2,4.98,0.00,29.5,27.5,00.0,38.1,31.2,22.6,0000.0,0015.40,0007.82,0006.80
2022-09-04 20:05:00,,0829.3,5.00,0.00,29.5,27.8,00.0,38.1,31.3,22.4,0000.0,0014.83,0007.75,0006.80
2022-09-04 20:06:00,,0829.1,5.01,0.00,29.6,28.1,00.0,38.1,31.4,22.4,0000.0,0015.19,0007.74,0006.78
2022-09-04 20:07:00,,0829.2,5.01,0.00,29.6,28.3,00.0,38.2,31.5,22.5,0000.0,0015.30,0007.70,0006.77
2022-09-04 20:08:00,,0829.1,5.00,0.00,29.6,27.9,00.0,38.2,31.5,22.5,0000.0,0016.26,0007.63,0006.75
2022-09-04 20:09:00,,0829.1,5.00,0.00,29.6,26.9,00.0,38.2,31.4,22.6,0000.0,0016.29,0007.63,0006.76
2022-09-04 20:10:00,,0829.2,5.00,0.00,29.6,26.8,00.0,38.2,31.4,22.9,0000.0,0015.76,0007.64,0006.77
2022-09-04 20:11:00,,0829.1,5.00,0.00,29.5,27.1,00.0,38.1,31.3,22.7,0000.0,0017.14,0007.69,0006.76
2022-09-04 20:12:00,,0829.1,4.99,0.00,29.5,27.3,00.0,38.1,31.2,22.1,0000.0,0018.54,0007.68,0006.74
2022-09-04 20:13:00,,0829.0,5.01,0.00,29.5,27.6,00.0,38.1,31.2,21.8,0000.0,0019.12,0007.67,0006.73
2022-09-04 20:14:00,,0829.1,5.00,0.00,29.5,27.9,00.0,38.1,31.4,21.8,0000.0,0019.05,0007.65,0006.69
2022-09-04 20:15:00,,0829.1,5.01,0.00,29.6,28.2,00.0,38.1,31.4,22.0,0000.0,0018.80,0007.61,0006.65
2022-09-04 20:16:00,,0829.1,4.98,0.00,29.6,28.3,00.0,38.2,31.5,22.3,0000.0,0018.80,0007.57,0006.60
2022-09-04 20:17:00,,0829.0,5.01,0.00,29.6,27.4,00.0,38.2,31.4,22.1,0000.0,0017.98,0007.54,0006.57
2022-09-04 20:18:00,,0829.1,4.99,0.00,29.6,26.6,00.0,38.2,31.3,22.0,0000.0,0017.56,0007.54,0006.56
2022-09-04 20:19:00,,0829.1,5.00,0.00,29.5,26.9,00.0,38.1,31.4,22.1,0000.0,0016.55,0007.57,0006.55
2022-09-04 20:20:00,,0829.0,5.00,0.00,29.5,27.2,00.0,38.1,31.3,22.0,0000.0,0016.31,0007.56,0006.51
2022-09-04 20:21:00,,0829.0,5.00,0.00,29.5,27.5,00.0,38.1,31.3,21.8,0000.0,0016.01,0007.49,0006.48
2022-09-04 20:22:00,,0829.0,5.00,0.00,29.5,27.8,00.0,38.1,31.3,22.2,0000.0,0014.46,0007.40,0006.46
2022-09-04 20:23:00,,0828.9,5.01,0.00,29.5,28.1,00.0,38.1,31.4,21.9,0000.0,0013.28,0007.35,0006.43
2022-09-04 20:24:00,,0828.9,4.98,0.00,29.6,28.3,00.0,38.1,31.5,21.9,0000.0,0012.60,0007.31,0006.41
2022-09-04 20:25:00,,0828.9,5.01,0.00,29.6,28.4,00.0,38.2,31.6,21.8,0000.0,0013.35,0007.34,0006.42
2022-09-04 20:26:00,,0828.8,4.99,0.00,29.6,27.5,00.0,38.2,31.5,21.4,0000.0,0013.74,0007.33,0006.43
2022-09-04 20:27:00,,0829.0,5.00,0.00,29.6,26.7,00.0,38.2,31.4,21.2,0000.0,0014.23,0007.35,0006.45
2022-09-04 20:28:00,,0829.2,5.00,0.00,29.6,26.9,00.0,38.2,31.4,21.4,0000.0,0014.47,0007.38,0006.46
2022-09-04 20:29:00,,0829.2,5.00,0.00,29.5,27.1,00.0,38.1,31.3,21.6,0000.0,0014.28,0007.37,0006.44
2022-09-04 20:30:00,,0829.3,4.99,0.00,29.5,27.5,00.0,38.1,31.2,21.7,0000.0,0014.10,0007.35,0006.42
2022-09-04 20:31:00,,0828.7,5.01,0.00,29.5,27.7,00.0,38.1,31.3,21.7,0000.0,0015.43,0007.35,0006.41
2022-09-04 20:32:00,,0828.7,5.01,0.00,29.6,28.0,00.0,38.1,31.4,21.7,0000.0,0016.77,0007.39,0006.42
2022-09-04 20:33:00,,0828.7,5.01,0.00,29.6,28.3,00.0,38.2,31.5,21.8,0000.0,0017.25,0007.38,0006.40
2022-09-04 20:34:00,,0828.7,4.98,0.00,29.6,28.1,00.0,38.2,31.5,22.3,0000.0,0017.37,0007.35,0006.38
2022-09-04 20:35:00,,0828.9,5.00,0.00,29.6,27.1,00.0,38.2,31.4,22.6,0000.0,0017.62,0007.36,0006.38
2022-09-04 20:36:00,,0829.1,5.00,0.00,29.6,26.8,00.0,38.2,31.4,20.9,0000.0,0017.39,0007.32,0006.37
2022-09-04 20:37:00,,0829.1,5.00,0.00,29.5,27.0,00.0,38.2,31.4,18.9,0000.0,0018.09,0007.31,0006.35
2022-09-04 20:38:00,,0828.9,4.99,0.00,29.5,27.3,00.0,38.1,31.3,17.6,0000.0,0018.07,0007.26,0006.31
2022-09-04 20:39:00,,0829.2,5.01,0.00,29.5,27.6,00.0,38.1,31.3,17.4,0000.0,0017.50,0007.19,0006.27
2022-09-04 20:40:00,,0829.0,5.00,0.00,29.5,27.9,00.0,38.1,31.4,18.5,0000.0,0017.89,0007.15,0006.24
2022-09-04 20:41:00,,0829.0,5.00,0.00,29.6,28.2,00.0,38.1,31.4,18.8,0000.0,0018.79,0007.12,0006.21
2022-09-04 20:42:00,,0828.9,4.98,0.00,29.6,28.0,00.0,38.2,31.5,18.7,0000.0,0017.42,0007.05,0006.17
2022-09-04 20:43:00,,0828.9,5.01,0.00,29.6,26.9,00.0,38.2,31.3,19.0,0000.0,0015.90,0007.01,0006.14
2022-09-04 20:44:00,,0828.9,5.00,0.00,29.5,26.6,00.0,38.2,31.3,18.8,0000.0,0015.69,0006.99,0006.11
2022-09-04 20:45:00,,0829.1,5.00,0.00,29.5,26.9,00.0,38.1,31.3,18.6,0000.0,0016.46,0006.97,0006.10
2022-09-04 20:46:00,,0829.1,4.99,0.00,29.5,27.2,00.0,38.1,31.2,19.0,0000.0,0016.16,0006.95,0006.09
2022-09-04 20:47:00,,0829.1,5.01,0.00,29.5,27.5,00.0,38.1,31.2,19.7,0000.0,0015.92,0006.93,0006.09
2022-09-04 20:48:00,,0828.9,5.00,0.00,29.5,27.8,00.0,38.1,31.3,19.6,0000.0,0014.89,0006.93,0006.11
2022-09-04 20:49:00,,0829.0,5.00,0.00,29.5,28.1,00.0,38.1,31.4,19.4,0000.0,0015.18,0006.94,0006.13
2022-09-04 20:50:00,,0828.9,5.00,0.00,29.6,28.3,00.0,38.1,31.5,19.3,0000.0,0015.28,0006.96,0006.14
2022-09-04 20:51:00,,0828.5,4.99,0.00,29.6,27.6,00.0,38.2,31.4,18.6,0000.0,0015.66,0007.06,0006.17
2022-09-04 20:52:00,,0828.4,5.00,0.00,29.5,26.7,00.0,38.1,31.3,17.0,0000.0,0014.91,0007.07,0006.18
2022-09-04 20:53:00,,0828.5,4.99,0.00,29.5,26.8,00.0,38.1,31.3,16.9,0000.0,0014.30,0007.06,0006.20
2022-09-04 20:54:00,,0828.5,5.00,0.00,29.5,27.1,00.0,38.1,31.2,17.3,0000.0,0014.32,0007.08,0006.21
2022-09-04 20:55:00,,0828.5,4.99,0.00,29.5,27.4,00.0,38.1,31.2,17.4,0000.0,0014.38,0007.07,0006.23
2022-09-04 20:56:00,,0828.5,5.00,0.00,29.5,27.7,00.0,38.1,31.3,17.6,0000.0,0013.63,0007.06,0006.23
2022-09-04 20:57:00,,0828.5,5.00,0.00,29.5,27.9,00.0,38.1,31.3,17.1,0000.0,0013.82,0007.09,0006.23
2022-09-04 20:58:00,,0828.5,5.01,0.00,29.5,28.2,00.0,38.1,31.4,17.1,0000.0,0013.91,0007.09,0006.21
2022-09-04 20:59:00,,0828.4,4.99,0.00,29.6,28.1,00.0,38.1,31.5,17.3,0000.0,0013.90,0007.08,0006.20
